Starlink 31646

operational
NORAD ID: 59265 Int'l Des: 2024-050 Owner: SPXS Country: US Constellation: starlink
LEOCIRCULAR

关于 Starlink 31646

正在加载描述...

实时位置

正在加载3D地球...

即将过境

高度历史

Altitude vs Time

uPlot chart will show altitude changes over time

两行轨道根数

1 59265U 24050M 25308.00914610 .00000812 00000-0 39532-4 0 9994
2 59265 53.1616 44.9567 0001288 84.4930 275.6218 15.30200226 91308
Epoch: Nov 4, 2025 • Age: 10 hours

当前状态

高度 475.7 km
速度 7.63 km/s
星下点 24.06°N, 5.54°E
发射日期 Mar 19, 2024
运行时间 1.6 years
类型 internet

技术详情

分类 Payload
质量 730.00 kg
干质量 700.00 kg
总质量 730.00 kg
长度 0.30 m
直径 4.10 m
跨度 29.00 m
形状 Box + pan
制造商 SPXS
平台类型 Starlink V2M
阶段状态 In Orbit
所有者/国家 SPXS/US

大型星座

Loading constellations...